Flag for U.S.A. Weather past 2 weeks in Fort Wayne, Indiana, U.S.A.

Now
66 °F

Scattered clouds.


Feels Like: 66 °F
Forecast: 56 / 75 °F
Wind: 8 mph from Northwest

Location: Fort Wayne International Airport

Current Time: Jul 30, 2014 at 10:42:33 AM

Latest Report: Jul 30, 2014 at 9:54 AM


Visibility: 10 mi

Pressure: 30.03 "Hg

Humidity: 75%

Dew point: 58 °F

Location of Fort WayneLocation

Historic Weather in Fort Wayne — Graph

°F

Fort Wayne temperature yesterday

Maximum temperature yesterday: 73 °F (at 3:54 PM)
Minimum temperature yesterday: 48 °F (at 5:54 AM)
Average temperature yesterday: 61 °F

Past Weeks' High & Low Weather Summary

 TemperatureHumidityPressure
High86 °F (Jul 21, 4:54 PM)97% (Jul 20, 5:54 AM)30.22 "Hg (Jul 20, 5:54 AM)
Low48 °F (Jul 29, 5:54 AM)33% (Jul 17, 5:54 PM)29.65 "Hg (Jul 27, 3:54 PM)
Average67 °F73%30.01 "Hg
* Reported Jul 15 8:54 AM — Jul 30 8:54 AM, Fort Wayne, Weather by CustomWeather, © 2014

Note: Actual official high and low records may vary slightly from our data, if they occured in-between our weather recording intervals... More about our weather records

Advertising

Fort Wayne weather history for previous 24 hours

 ConditionsComfort  
Time TempWeatherWind HumidityBarometerVisibility
8:54 AM
Jul 30
62 °FPartly sunny.5 mph86%30.03 "Hg8 mi
7:54 AM60 °FFog.5 mph93%30.02 "Hg6 mi
6:54 AM59 °FFog.6 mph93%30.02 "Hg5 mi
5:54 AM59 °FFog.6 mph93%30.00 "Hg6 mi
4:54 AM58 °FFog.3 mph97%30.00 "Hg5 mi
3:54 AM58 °FFog.No wind97%30.01 "Hg5 mi
2:54 AM57 °FPassing clouds.No wind96%30.00 "Hg8 mi
1:54 AM58 °FPassing clouds.3 mph93%30.01 "Hg8 mi
12:54 AM59 °FPassing clouds.6 mph93%30.01 "Hg10 mi
11:54 PM
Jul 29
60 °FClear.8 mph93%30.01 "Hg10 mi
10:54 PM61 °FPassing clouds.6 mph90%30.02 "Hg10 mi
9:54 PM63 °FPassing clouds.10 mph87%30.01 "Hg10 mi
8:54 PM65 °FPassing clouds.6 mph85%30.00 "Hg10 mi
7:54 PM69 °FScattered clouds.6 mph73%30.00 "Hg10 mi
6:54 PM66 °FBroken clouds.6 mph81%30.02 "Hg10 mi
5:54 PM66 °FThunderstorms. Partly sunny.12 mph73%30.02 "Hg10 mi
4:54 PM72 °FThunderstorms. Broken clouds.12 mph55%30.01 "Hg10 mi
3:54 PM73 °FScattered clouds.10 mph53%30.01 "Hg10 mi
2:54 PM72 °FPartly sunny.10 mph55%30.03 "Hg10 mi
1:54 PM71 °FPartly sunny.7 mph55%30.04 "Hg10 mi
12:54 PM70 °FPartly sunny.8 mph57%30.05 "Hg10 mi
11:54 AM67 °FPartly sunny.6 mph59%30.06 "Hg10 mi
10:54 AM65 °FPassing clouds.8 mph61%30.06 "Hg10 mi
Weather by CustomWeather, © 2014

See weather overviewHow to use our weather pages